Mosinee, WI

6:35 PM CDT on October 14, 2019 (GMT -0500)
Central Wisconsin

Weather History for KCWA - August, 2019

Change the Weather History Date:

Tuesday, August 20, 2019

  Actual Average Record
Temperature  
Mean Temperature 64 °F -  
Max Temperature 78 °F 74 °F 89 °F (2003)
Min Temperature 50 °F 54 °F 44 °F (2012)
Degree Days  
Heating Degree Days 1    
Growing Degree Days 14 (Base 50)    
Moisture  
Dew Point 59 °F    
Average Humidity 90    
Maximum Humidity 100    
Minimum Humidity 61    
Precipitation  
Precipitation 0.00 in - - ()
Sea Level Pressure  
Sea Level Pressure 30.01 in    
Wind  
Wind Speed 2 mph ()    
Max Wind Speed 14 mph    
Max Gust Speed 16 mph    
Visibility 7.7 miles    
Events Fog    
Averages and records for this station are not official NWS values.
T = Trace of Precipitation, MM = Missing Value Source: Averaged Metar Reports

Daily Weather History Graph

Daily Weather History Graph

Search for Another Location

Airport or City:

Astronomy

Aug. 20, 2019 Rise Set
Actual Time 6:06 AM CDT 7:56 PM CDT
Civil Twilight 5:35 AM CDT 8:27 PM CDT
Nautical Twilight 4:56 AM CDT 9:06 PM CDT
Astronomical Twilight 4:15 AM CDT 9:47 PM CDT
Moon 10:33 PM CDT (8/20) 10:55 AM CDT (8/20)
Length of Visible Light 14h 52m
Length of Day
13h 50m
Waning Gibbous, 77% of the Moon is Illuminated
Aug 20
Waning Gibbous
Aug 23
Last Quarter
Aug 30
New
Sep 5
First Quarter
Sep 13
Full

Hourly Weather History & Observations

Time (CDT) Temp. Dew Point Humidity Pressure Visibility Wind Dir Wind Speed Gust Speed Precip Events Conditions
12:15 AM 57.2 °F 57.2 °F 100% 30.06 in 10.0 mi Calm Calm - N/A   Clear
12:35 AM 55.4 °F 55.4 °F 100% 30.06 in 10.0 mi Calm Calm - N/A   Clear
12:55 AM 57.2 °F 57.2 °F 100% 30.06 in 2.5 mi Calm Calm - N/A   Clear
1:15 AM 55.4 °F 55.4 °F 100% 30.06 in 1.2 mi Calm Calm - N/A   Mist
1:35 AM 53.6 °F 53.6 °F 100% 30.06 in 2.5 mi Calm Calm - N/A   Clear
1:55 AM 53.6 °F 53.6 °F 100% 30.06 in 7.0 mi Calm Calm - N/A   Clear
2:15 AM 53.6 °F 53.6 °F 100% 30.05 in 10.0 mi Calm Calm - N/A   Clear
2:35 AM 53.6 °F 53.6 °F 100% 30.05 in 10.0 mi Calm Calm - N/A   Clear
2:55 AM 53.6 °F 53.6 °F 100% 30.06 in 2.5 mi Calm Calm - N/A   Clear
3:15 AM 53.6 °F 53.6 °F 100% 30.06 in 0.5 mi Calm Calm - N/A Fog Fog
3:35 AM 53.6 °F 53.6 °F 100% 30.06 in 0.5 mi Calm Calm - N/A Fog Fog
3:55 AM 55.4 °F 55.4 °F 100% 30.05 in 5.0 mi Calm Calm - N/A   Scattered Clouds
4:15 AM 51.8 °F 51.8 °F 100% 30.05 in 0.5 mi Calm Calm - N/A Fog Fog
4:35 AM 50.0 °F 50.0 °F 100% 30.04 in 0.5 mi Calm Calm - N/A Fog Fog
4:55 AM 50.0 °F 50.0 °F 100% 30.01 in 1.5 mi East 3.5 mph - N/A   Mostly Cloudy
5:15 AM 50.0 °F 50.0 °F 100% 30.00 in 7.0 mi East 3.5 mph - N/A   Clear
5:35 AM 50.0 °F 50.0 °F 100% 30.01 in 7.0 mi Calm Calm - N/A   Clear
5:48 AM 51.8 °F 51.8 °F 100% 30.00 in 10.0 mi Calm Calm - N/A   Clear
6:53 AM 53.6 °F 53.6 °F 100% 29.99 in 10.0 mi Calm Calm - N/A   Clear
7:48 AM 57.2 °F 57.2 °F 100% 30.01 in 10.0 mi Calm Calm - N/A   Clear
8:48 AM 62.6 °F 62.6 °F 100% 30.04 in 10.0 mi SSE 4.6 mph - N/A   Scattered Clouds
9:50 AM 68.0 °F 64.4 °F 88% 30.04 in 10.0 mi South 6.9 mph - N/A   Scattered Clouds
10:47 AM 71.6 °F 64.4 °F 78% 30.05 in 10.0 mi SSW 4.6 mph - N/A   Scattered Clouds
12:00 PM 77.0 °F 64.4 °F 65% 30.05 in 10.0 mi WNW 11.5 mph 16.1 mph N/A   Mostly Cloudy
12:50 PM 73.4 °F 62.6 °F 69% 30.03 in 10.0 mi West 5.8 mph - N/A   Mostly Cloudy
1:47 PM 73.4 °F 64.4 °F 73% 29.92 in 10.0 mi South 13.8 mph - N/A   Mostly Cloudy
2:45 PM 73.4 °F 64.4 °F 73% 29.91 in 10.0 mi Calm Calm - N/A   Mostly Cloudy
3:50 PM 75.2 °F 64.4 °F 69% 29.95 in 10.0 mi Calm Calm - N/A   Mostly Cloudy
4:47 PM 78.8 °F 64.4 °F 61% 29.96 in 10.0 mi WSW 5.8 mph - N/A   Scattered Clouds
5:50 PM 77.0 °F 62.6 °F 61% 29.97 in 10.0 mi West 5.8 mph - N/A   Partly Cloudy
6:50 PM 75.2 °F 62.6 °F 65% 29.96 in 10.0 mi WSW 4.6 mph - N/A   Partly Cloudy
7:55 PM 69.8 °F 62.6 °F 78% 29.96 in 10.0 mi WSW 4.6 mph - N/A   Scattered Clouds
8:52 PM 68.0 °F 64.4 °F 88% 29.97 in 10.0 mi WSW 4.6 mph - N/A   Scattered Clouds
9:52 PM 68.0 °F 66.2 °F 94% 29.99 in 10.0 mi SW 4.6 mph - N/A   Overcast
9:55 PM 68.0 °F 64.4 °F 88% 29.99 in 10.0 mi WSW 4.6 mph - N/A   Overcast
10:15 PM 68.0 °F 64.4 °F 88% 29.99 in 10.0 mi WSW 4.6 mph - N/A   Overcast
10:35 PM 68.0 °F 64.4 °F 88% 29.99 in 10.0 mi SW 3.5 mph - N/A   Overcast
10:55 PM 66.2 °F 64.4 °F 94% 29.99 in 10.0 mi WSW 4.6 mph - N/A   Overcast
11:35 PM 64.4 °F 64.4 °F 100% 29.99 in 10.0 mi WSW 6.9 mph - N/A   Mostly Cloudy
11:55 PM 64.4 °F 64.4 °F 100% 29.99 in 10.0 mi West 5.8 mph - N/A   Mostly Cloudy